カタログに戻る

CZ-6A DEB

運用中PO
NORAD 61432·DEBRIS·🇨🇳 China

打ち上げ Aug 6, 2024 から Taiyuan Satellite Launch Center

Loading…

次のパス (今後24時間)

TLE

最新Source: Space-Track

元期: Sep 14, 2026, 17:41 UTC

1 61432U 24140YZ  26257.73722623  .00005493  00000-0  40290-3 0  9990
2 61432  89.0828 263.7414 0150765 175.5851 184.6754 14.94569333111900

AllMySatでCZ-6A DEBをリアルタイム追跡

Download on the App Store